When you browse on this site, cookies collect data to enhance your experience and personalize the content and advertising you see.
Visit our Privacy Policy to learn more. By continuing to use the site, you agree to this use of cookies and data.
  • în România
  • Lista ţărilor
  • Pe 7 zile
  • Temperatura apei
  • Hartă satelitară
  • Meteo pe hartă
  • Widget-uri
  • user-avatar
    Intrare

    Meteo pe oră la Koscielec

    Astăzi, 19 Decembrie, Miercuri

    Timp Temperatura Precipitaţii Vânt Presiune Umiditate
    00:00 -14°C° 0 mm 1 m/s 595 mmHg 90%
    01:00 -15°C° 0 mm 1 m/s 595 mmHg 90%
    02:00 -15°C° 0 mm 1 m/s 595 mmHg 89%
    03:00 -15°C° 0 mm 1 m/s 595 mmHg 88%
    04:00 -15°C° 0 mm 1 m/s 595 mmHg 87%
    05:00 -15°C° 0 mm 1 m/s 595 mmHg 87%
    06:00 -15°C° 0 mm 1 m/s 595 mmHg 86%
    07:00 -15°C° 0 mm 1 m/s 595 mmHg 85%
    08:00 -14°C° 0 mm 1 m/s 595 mmHg 81%
    09:00 -12°C° 0 mm 1 m/s 596 mmHg 77%
    10:00 -11°C° 0 mm 1 m/s 596 mmHg 73%
    11:00 -12°C° 0 mm 2 m/s 596 mmHg 72%
    12:00 -12°C° 0 mm 2 m/s 597 mmHg 71%
    13:00 -10°C° 0 mm 2 m/s 597 mmHg 71%
    14:00 -12°C° 0 mm 2 m/s 596 mmHg 76%
    15:00 -14°C° 0 mm 2 m/s 595 mmHg 82%
    16:00 -15°C° 0 mm 2 m/s 594 mmHg 88%
    17:00 -15°C° 0 mm 2 m/s 594 mmHg 87%
    18:00 -16°C° 0 mm 2 m/s 593 mmHg 87%
    19:00 -16°C° 0 mm 2 m/s 593 mmHg 87%
    20:00 -16°C° 0 mm 2 m/s 593 mmHg 85%
    21:00 -16°C° 0 mm 2 m/s 593 mmHg 84%
    22:00 -16°C° 0 mm 2 m/s 593 mmHg 83%
    23:00 -16°C° 0 mm 2 m/s 593 mmHg 81%

    Mâine, 20 Decembrie, Joi

    Timp Temperatura Precipitaţii Vânt Presiune Umiditate
    00:00 -15°C° 0 mm 2 m/s 593 mmHg 80%
    01:00 -15°C° 0 mm 2 m/s 593 mmHg 78%
    02:00 -15°C° 0 mm 2 m/s 593 mmHg 77%
    03:00 -15°C° 0 mm 2 m/s 593 mmHg 76%
    04:00 -14°C° 0 mm 2 m/s 593 mmHg 75%
    05:00 -14°C° 0 mm 2 m/s 593 mmHg 77%
    06:00 -14°C° 0 mm 2 m/s 593 mmHg 79%
    07:00 -14°C° 0 mm 2 m/s 593 mmHg 80%
    08:00 -14°C° 0 mm 2 m/s 593 mmHg 81%
    09:00 -13°C° 0 mm 2 m/s 593 mmHg 81%
    10:00 -13°C° 0 mm 2 m/s 594 mmHg 81%
    11:00 -13°C° 0 mm 2 m/s 594 mmHg 81%
    12:00 -12°C° 0 mm 2 m/s 594 mmHg 81%
    13:00 -12°C° 0 mm 2 m/s 594 mmHg 80%
    14:00 -13°C° 0 mm 2 m/s 594 mmHg 83%
    15:00 -13°C° 0 mm 2 m/s 593 mmHg 86%
    16:00 -12°C° 0 mm 1 m/s 593 mmHg 89%
    17:00 -12°C° 0 mm 1 m/s 593 mmHg 89%
    18:00 -12°C° 0 mm 1 m/s 593 mmHg 90%
    19:00 -12°C° 0 mm 1 m/s 593 mmHg 90%
    20:00 -12°C° 0 mm 1 m/s 593 mmHg 91%
    21:00 -14°C° 0 mm 2 m/s 594 mmHg 91%
    22:00 -14°C° 0 mm 2 m/s 594 mmHg 92%
    23:00 -14°C° 0 mm 2 m/s 594 mmHg 92%

    Poimâine, 21 Decembrie, Vineri

    Timp Temperatura Precipitaţii Vânt Presiune Umiditate
    00:00 -13°C° 0 mm 2 m/s 594 mmHg 92%
    01:00 -13°C° 0 mm 2 m/s 594 mmHg 92%
    02:00 -14°C° 0 mm 2 m/s 594 mmHg 93%
    03:00 -14°C° 0 mm 2 m/s 593 mmHg 93%
    04:00 -14°C° 0 mm 2 m/s 593 mmHg 93%
    05:00 -14°C° 0 mm 2 m/s 593 mmHg 93%
    06:00 -13°C° 0 mm 2 m/s 593 mmHg 93%
    07:00 -13°C° 0 mm 2 m/s 593 mmHg 92%
    08:00 -12°C° 0.1 mm 2 m/s 594 mmHg 90%
    09:00 -13°C° 0.1 mm 3 m/s 594 mmHg 88%
    10:00 -12°C° 0.1 mm 3 m/s 594 mmHg 86%
    11:00 -10°C° 0.1 mm 3 m/s 594 mmHg 84%
    12:00 -10°C° 0.1 mm 3 m/s 594 mmHg 82%
    13:00 -10°C° 0.1 mm 4 m/s 593 mmHg 81%
    14:00 -11°C° 0.1 mm 4 m/s 593 mmHg 83%
    15:00 -10°C° 0.1 mm 3 m/s 592 mmHg 85%
    16:00 -12°C° 0.1 mm 3 m/s 591 mmHg 87%
    17:00 -12°C° 0.2 mm 4 m/s 591 mmHg 87%
    18:00 -12°C° 0.2 mm 4 m/s 591 mmHg 87%
    19:00 -12°C° 0.2 mm 4 m/s 590 mmHg 87%
    20:00 -12°C° 0.4 mm 4 m/s 590 mmHg 88%
    21:00 -11°C° 0.4 mm 4 m/s 590 mmHg 88%
    22:00 -11°C° 0.4 mm 4 m/s 589 mmHg 89%
    23:00 -11°C° 0.2 mm 4 m/s 589 mmHg 89%

    22 Decembrie, Sâmbătă

    Timp Temperatura Precipitaţii Vânt Presiune Umiditate
    00:00 -11°C° 0.2 mm 4 m/s 589 mmHg 90%
    01:00 -9°C° 0.2 mm 3 m/s 589 mmHg 91%
    02:00 -9°C° 0.6 mm 3 m/s 589 mmHg 91%
    03:00 -9°C° 0.6 mm 3 m/s 589 mmHg 91%
    04:00 -8°C° 0.6 mm 3 m/s 589 mmHg 91%
    05:00 -8°C° 0.1 mm 3 m/s 589 mmHg 92%
    06:00 -8°C° 0.1 mm 3 m/s 589 mmHg 92%
    07:00 -8°C° 0.1 mm 3 m/s 590 mmHg 93%
    08:00 -8°C° 0 mm 3 m/s 590 mmHg 93%
    09:00 -7°C° 0 mm 3 m/s 590 mmHg 92%
    10:00 -7°C° 0 mm 3 m/s 590 mmHg 92%
    11:00 -7°C° 0.6 mm 3 m/s 589 mmHg 92%
    12:00 -7°C° 0.6 mm 3 m/s 589 mmHg 93%
    13:00 -7°C° 0.6 mm 3 m/s 589 mmHg 93%
    14:00 -7°C° 0.6 mm 3 m/s 589 mmHg 93%
    15:00 -8°C° 0.6 mm 3 m/s 589 mmHg 92%
    16:00 -8°C° 0.6 mm 3 m/s 589 mmHg 92%
    17:00 -9°C° 0.4 mm 4 m/s 589 mmHg 91%
    18:00 -9°C° 0.4 mm 4 m/s 589 mmHg 90%
    19:00 -8°C° 0.4 mm 5 m/s 590 mmHg 89%
    20:00 -10°C° 0 mm 5 m/s 590 mmHg 88%
    21:00 -11°C° 0 mm 5 m/s 590 mmHg 86%
    22:00 -11°C° 0 mm 5 m/s 590 mmHg 85%
    23:00 -10°C° 0 mm 4 m/s 590 mmHg 86%

    23 Decembrie, Duminică

    Timp Temperatura Precipitaţii Vânt Presiune Umiditate
    00:00 -10°C° 0 mm 4 m/s 590 mmHg 86%
    01:00 -11°C° 0 mm 4 m/s 590 mmHg 87%
    02:00 -11°C° 0 mm 4 m/s 590 mmHg 88%
    03:00 -10°C° 0 mm 3 m/s 590 mmHg 88%
    04:00 -10°C° 0 mm 3 m/s 590 mmHg 89%
    05:00 -10°C° 0.1 mm 3 m/s 590 mmHg 89%
    06:00 -10°C° 0.1 mm 3 m/s 590 mmHg 90%
    07:00 -10°C° 0.1 mm 3 m/s 590 mmHg 90%
    08:00 -9°C° 0.1 mm 3 m/s 591 mmHg 88%
    09:00 -9°C° 0.1 mm 3 m/s 591 mmHg 87%
    10:00 -9°C° 0.1 mm 3 m/s 592 mmHg 85%
    11:00 -9°C° 0.1 mm 3 m/s 592 mmHg 84%
    12:00 -8°C° 0.1 mm 3 m/s 592 mmHg 83%
    13:00 -8°C° 0.1 mm 3 m/s 592 mmHg 82%
    14:00 -9°C° 0.1 mm 3 m/s 592 mmHg 84%
    15:00 -9°C° 0.1 mm 3 m/s 592 mmHg 86%
    16:00 -10°C° 0.1 mm 3 m/s 591 mmHg 88%
    17:00 -10°C° 0.1 mm 3 m/s 592 mmHg 89%
    18:00 -9°C° 0.1 mm 2 m/s 592 mmHg 89%
    19:00 -10°C° 0.1 mm 2 m/s 592 mmHg 89%
    20:00 -10°C° 0 mm 2 m/s 592 mmHg 89%
    21:00 -10°C° 0 mm 2 m/s 592 mmHg 90%
    22:00 -10°C° 0 mm 2 m/s 592 mmHg 90%
    23:00 -10°C° 0.1 mm 2 m/s 591 mmHg 90%

    24 Decembrie, Luni

    Timp Temperatura Precipitaţii Vânt Presiune Umiditate
    00:00 -10°C° 0.1 mm 2 m/s 591 mmHg 90%
    01:00 -10°C° 0.1 mm 2 m/s 591 mmHg 90%
    02:00 -12°C° 0.4 mm 3 m/s 591 mmHg 90%
    03:00 -12°C° 0.4 mm 3 m/s 591 mmHg 90%
    04:00 -12°C° 0.4 mm 3 m/s 591 mmHg 90%
    05:00 -12°C° 0.4 mm 3 m/s 591 mmHg 90%
    06:00 -12°C° 0.4 mm 4 m/s 591 mmHg 89%
    07:00 -12°C° 0.4 mm 4 m/s 592 mmHg 89%
    08:00 -12°C° 0.3 mm 4 m/s 592 mmHg 87%
    09:00 -12°C° 0.3 mm 4 m/s 593 mmHg 86%
    10:00 -12°C° 0.3 mm 4 m/s 593 mmHg 84%
    11:00 -12°C° 0 mm 4 m/s 594 mmHg 83%
    12:00 -12°C° 0 mm 3 m/s 594 mmHg 81%
    13:00 -10°C° 0 mm 3 m/s 594 mmHg 79%
    14:00 -10°C° 0 mm 2 m/s 594 mmHg 83%
    15:00 -12°C° 0 mm 2 m/s 594 mmHg 86%
    16:00 -10°C° 0 mm 1 m/s 594 mmHg 90%
    17:00 -12°C° 0.2 mm 2 m/s 594 mmHg 90%
    18:00 -12°C° 0.2 mm 2 m/s 595 mmHg 91%
    19:00 -12°C° 0.2 mm 2 m/s 595 mmHg 91%
    20:00 -12°C° 0.1 mm 2 m/s 595 mmHg 92%
    21:00 -12°C° 0.1 mm 2 m/s 595 mmHg 92%
    22:00 -12°C° 0.1 mm 2 m/s 594 mmHg 92%
    23:00 -12°C° 0.2 mm 2 m/s 594 mmHg 92%
    Arată mai mult